Weather History for Juneau, AK

Change the Weather History Date:

Wednesday, January 22, 2014

  Actual Average Record
Temperature  
Mean Temperature 40 °F 28 °F  
Max Temperature 47 °F 33 °F 47 °F (2014)
Min Temperature 33 °F 24 °F -16 °F (1952)
Degree Days  
Heating Degree Days 25 37  
Month to date heating degree days 606 814  
Since 1 July heating degree days 4231 4535  
Moisture  
Dew Point 41 °F    
Average Humidity 89    
Maximum Humidity 96    
Minimum Humidity 82    
Precipitation  
Precipitation 1.16 in 0.18 in 1.16 in (2014)
Month to date precipitation 9.60 3.82  
Year to date precipitation 9.60 3.82  
Snow  
Snow 0.00 in 1.00 in 5.00 in (1969)
Month to date snowfall 4.7 19.4  
Since 1 July snowfall 64.0 48.9  
Snow Depth 0.00 in    
Sea Level Pressure  
Sea Level Pressure 30.18 in    
Wind  
Wind Speed 15 mph (East)    
Max Wind Speed 24 mph    
Max Gust Speed 30 mph    
Visibility 7 miles    
Events Rain    
T = Trace of Precipitation, MM = Missing Value Source: NWS Daily Summary

Daily Weather History Graph

Daily Weather History Graph

Search for Another Location

Airport:

Trip Planner

Search our weather history database for the weather conditions in past years. The results will help you decide how hot, cold, wet, or windy it might be!

Date:

Astronomy

Jan. 22, 2014 Rise Set
Actual Time 8:22 AM AKST 3:57 PM AKST
Civil Twilight 7:35 AM AKST 4:44 PM AKST
Nautical Twilight 6:46 AM AKST 5:34 PM AKST
Astronomical Twilight 5:59 AM AKST 6:21 PM AKST
Moon No Moon Rise 9:54 AM AKST (1/22)
Length of Visible Light 9h 09m
Length of Day
7h 35m
Waning Gibbous, 64% of the Moon is Illuminated
Jan 22
Waning Gibbous
Jan 23
Last Quarter
Jan 30
New
Feb 6
First Quarter
Feb 14
Full

Hourly Weather History & Observations

Time (AKST) Temp. Windchill Dew Point Humidity Pressure Visibility Wind Dir Wind Speed Gust Speed Precip Events Conditions
12:53 AM 34.0 °F 31.0 °F 32.0 °F 92% 30.09 in 7.0 mi ENE 3.5 mph - N/A   Overcast
1:53 AM 35.1 °F 29.3 °F 33.1 °F 92% 30.08 in 8.0 mi ESE 6.9 mph - N/A   Overcast
3:53 AM 41.0 °F 33.5 °F 37.0 °F 86% 30.10 in 10.0 mi East 13.8 mph - N/A   Overcast
4:53 AM 42.1 °F 35.2 °F 37.9 °F 85% 30.10 in 10.0 mi East 12.7 mph - N/A   Overcast
5:53 AM 42.1 °F 34.9 °F 37.9 °F 85% 30.13 in 10.0 mi East 13.8 mph - 0.00 in Rain Light Rain
6:53 AM 42.1 °F 34.9 °F 39.9 °F 92% 30.15 in 9.0 mi East 13.8 mph - 0.00 in Rain Light Rain
7:53 AM 42.1 °F 35.2 °F 41.0 °F 96% 30.15 in 8.0 mi East 12.7 mph - 0.00 in   Overcast
8:07 AM 42.1 °F 34.2 °F 41.0 °F 96% 30.15 in 10.0 mi East 16.1 mph - 0.00 in Rain Light Rain
8:53 AM 43.0 °F 36.4 °F 41.0 °F 93% 30.17 in 10.0 mi East 12.7 mph - 0.00 in Rain Light Rain
9:53 AM 44.1 °F 37.4 °F 41.0 °F 89% 30.18 in 10.0 mi East 13.8 mph - 0.01 in Rain Light Rain
10:53 AM 44.1 °F 35.9 °F 42.1 °F 93% 30.19 in 8.0 mi ESE 19.6 mph - 0.00 in Rain Light Rain
11:53 AM 44.1 °F 36.2 °F 42.1 °F 93% 30.18 in 6.0 mi ESE 18.4 mph - 0.10 in Rain Heavy Rain
12:53 PM 44.1 °F 36.5 °F 41.0 °F 89% 30.18 in 8.0 mi East 17.3 mph - 0.33 in Rain Heavy Rain
1:53 PM 43.0 °F 36.0 °F 41.0 °F 93% 30.18 in 8.0 mi ESE 13.8 mph - 0.13 in Rain Light Rain
2:53 PM 44.1 °F 36.8 °F 41.0 °F 89% 30.17 in 4.0 mi East 16.1 mph - 0.11 in Rain Rain
3:53 PM 45.0 °F 37.9 °F 42.1 °F 90% 30.19 in 6.0 mi East 16.1 mph - 0.07 in Rain Light Rain
4:53 PM 45.0 °F 37.9 °F 42.1 °F 90% 30.20 in 6.0 mi East 16.1 mph - 0.09 in Rain Light Rain
5:53 PM 44.1 °F 36.8 °F 42.1 °F 93% 30.21 in 7.0 mi ESE 16.1 mph - 0.07 in Rain Light Rain
6:53 PM 45.0 °F 37.6 °F 42.1 °F 90% 30.22 in 5.0 mi ESE 17.3 mph - 0.07 in Rain Light Rain
7:53 PM 45.0 °F 37.4 °F 43.0 °F 93% 30.23 in 5.0 mi ESE 18.4 mph - 0.08 in Rain Light Rain
8:53 PM 45.0 °F 37.9 °F 43.0 °F 93% 30.23 in 5.0 mi ESE 16.1 mph - 0.05 in Rain Light Rain
9:53 PM 46.0 °F 38.8 °F 44.1 °F 93% 30.24 in 3.0 mi ESE 18.4 mph - 0.02 in Rain Light Rain
10:39 PM 46.0 °F 38.8 °F 44.1 °F 93% 30.24 in 5.0 mi ESE 18.4 mph 27.6 mph 0.00 in Rain Light Rain
10:53 PM 46.0 °F 38.5 °F 44.1 °F 93% 30.24 in 6.0 mi ESE 19.6 mph - 0.00 in Rain Light Rain
11:53 PM 46.9 °F - 44.1 °F 90% 30.27 in 5.0 mi ESE 20.7 mph - 0.03 in Rain Rain